Weather History for Great Falls, MT

Change the Weather History Date:

Wednesday, June 4, 2014

  Actual Average Record
Temperature  
Mean Temperature 57 °F 57 °F  
Max Temperature 72 °F 70 °F 95 °F (1988)
Min Temperature 42 °F 44 °F 32 °F (1998)
Degree Days  
Heating Degree Days 8 9  
Month to date heating degree days 30 36  
Since 1 June heating degree days 30 36  
Since 1 July heating degree days 7818 7571  
Cooling Degree Days 0 0  
Month to date cooling degree days 0 0  
Year to date cooling degree days 0 7  
Since 1 June cooling degree days 0 0  
Growing Degree Days 6 (Base 50)    
Moisture  
Dew Point 41 °F    
Average Humidity 58    
Maximum Humidity 83    
Minimum Humidity 33    
Precipitation  
Precipitation T in 0.11 in 1.54 in (1948)
Month to date precipitation 0.45 0.43  
Year to date precipitation 7.56 6.16  
Snow  
Snow 0.00 in 0.00 in T in (1925)
Month to date snowfall 0.0 0.1  
Since 1 June snowfall 0.0 0.1  
Since 1 July snowfall 76.4 63.3  
Snow Depth 0.00 in    
Sea Level Pressure  
Sea Level Pressure 29.90 in    
Wind  
Wind Speed 7 mph (WSW)    
Max Wind Speed 21 mph    
Max Gust Speed 24 mph    
Visibility 10 miles    
Events      
T = Trace of Precipitation, MM = Missing Value Source: NWS Daily Summary

Daily Weather History Graph

Daily Weather History Graph

Search for Another Location

Airport:

Trip Planner

Search our weather history database for the weather conditions in past years. The results will help you decide how hot, cold, wet, or windy it might be!

Date:

Astronomy

Jun. 04, 2014 Rise Set
Actual Time 5:30 AM MDT 9:17 PM MDT
Civil Twilight 4:51 AM MDT 9:57 PM MDT
Nautical Twilight 3:57 AM MDT 10:50 PM MDT
Astronomical Twilight 2:40 AM MDT 12:09 AM MDT
Moon 12:13 PM MDT (6/4) 1:00 AM MDT (6/4)
Length of Visible Light 17h 05m
Length of Day
15h 46m
Waxing Crescent, 39% of the Moon is Illuminated
Jun 4
Waxing Crescent
Jun 5
First Quarter
Jun 12
Full
Jun 19
Last Quarter
Jun 27
New

Hourly Weather History & Observations

Time (MDT) Temp. Windchill Dew Point Humidity Pressure Visibility Wind Dir Wind Speed Gust Speed Precip Events Conditions
12:53 AM 50.0 °F - 39.2 °F 66% 29.89 in 10.0 mi SSW 11.5 mph - N/A   Clear
1:53 AM 48.0 °F - 39.0 °F 71% 29.87 in 10.0 mi West 8.1 mph - N/A   Clear
2:53 AM 45.0 °F 41.2 °F 39.0 °F 80% 29.86 in 10.0 mi SW 6.9 mph - N/A   Partly Cloudy
3:53 AM 43.0 °F 38.2 °F 37.9 °F 82% 29.87 in 10.0 mi SW 8.1 mph - N/A   Partly Cloudy
4:53 AM 45.0 °F 40.1 °F 39.0 °F 80% 29.87 in 10.0 mi SW 9.2 mph - N/A   Clear
5:53 AM 46.9 °F - 39.9 °F 77% 29.88 in 10.0 mi WSW 10.4 mph - N/A   Scattered Clouds
6:53 AM 52.0 °F - 41.0 °F 66% 29.92 in 10.0 mi West 6.9 mph - N/A   Scattered Clouds
7:53 AM 57.0 °F - 42.1 °F 57% 29.91 in 10.0 mi West 11.5 mph - N/A   Partly Cloudy
8:53 AM 57.9 °F - 45.0 °F 62% 29.95 in 10.0 mi WNW 15.0 mph 23.0 mph N/A   Overcast
9:53 AM 57.9 °F - 46.0 °F 65% 29.97 in 10.0 mi NW 13.8 mph - N/A   Overcast
10:53 AM 59.0 °F - 46.0 °F 62% 29.99 in 10.0 mi NNW 11.5 mph 16.1 mph N/A   Mostly Cloudy
11:53 AM 62.1 °F - 46.0 °F 56% 29.98 in 10.0 mi NNW 8.1 mph - N/A   Overcast
12:53 PM 61.0 °F - 45.0 °F 56% 29.96 in 10.0 mi Calm Calm - N/A   Clear
1:53 PM 64.9 °F - 45.0 °F 48% 29.94 in 10.0 mi Calm Calm - N/A   Clear
2:53 PM 66.0 °F - 43.0 °F 43% 29.94 in 10.0 mi WSW 5.8 mph - 0.00 in   Scattered Clouds
3:53 PM 68.0 °F - 43.0 °F 40% 29.91 in 10.0 mi WSW 9.2 mph - N/A   Clear
4:53 PM 69.1 °F - 42.1 °F 38% 29.89 in 10.0 mi SW 6.9 mph - N/A   Partly Cloudy
5:53 PM 70.0 °F - 39.9 °F 33% 29.87 in 10.0 mi Calm Calm - N/A   Clear
6:53 PM 70.0 °F - 39.9 °F 33% 29.85 in 10.0 mi SW 3.5 mph - N/A   Partly Cloudy
7:53 PM 68.0 °F - 41.0 °F 37% 29.83 in 10.0 mi SW 3.5 mph - N/A   Clear
8:53 PM 60.8 °F - 44.6 °F 55% 29.89 in 10.0 mi SW 3.5 mph - N/A   Clear
9:53 PM 57.9 °F - 35.1 °F 42% 29.86 in 10.0 mi Calm Calm - N/A   Clear
10:53 PM 54.0 °F - 37.0 °F 53% 29.87 in 10.0 mi SSW 10.4 mph - N/A   Clear
11:53 PM 53.1 °F - 37.0 °F 55% 29.85 in 10.0 mi SSW 9.2 mph - N/A   Clear